• Join FlightAware (Why Join?)
  • Login
  • US Flag 
03:15AM EDT


 

Airport Tracker/Info


-or-


 

Live Flight TrackerFlight Track Log ✈ UAL363 ✈ 27-Apr-2013 ✈ KORD - KDCA

Flight Track Log - Related Links

Times and Time Zones

All times are in EDT time to prevent confusion due to time zone crossing. See the UAL363 flight status page for this flight to view local times or setup timezone preferences in your user account.

Time Position Orientation Groundspeed Altitude Reporting Facility
EDT Latitude Longitude Course Direction KTS MPH feet Rate Location/Type
07:11AM 41.9167 -87.9000 84° East 150 173 3,300  Level Chicago TRACON
07:12AM 41.9167 -87.8333 90° East 203 234 5,400 2,640 Climbing Chicago TRACON
07:13AM 41.9541 -87.4110 97° East  Level FlightAware Approximate
07:14AM 41.9410 -87.2487 96° East  Level FlightAware Approximate
07:15AM 41.9333 -87.0860 90° East  Level FlightAware Approximate
07:15AM 41.9300 -87.5889 86° East 292 336 12,400  Level Chicago Center
07:16AM 41.9334 -86.9227 90° East  Level FlightAware Approximate
07:16AM 41.9342 -87.4600 87° East 340 391 15,100  Level Chicago Center
07:17AM 41.9352 -86.7596 84° East  Level FlightAware Approximate
07:17AM 41.9386 -87.3236 87° East 363 418 17,900  Level Chicago Center
07:18AM 41.9411 -87.1822 89° East 379 436 20,300 2,280 Climbing Chicago Center
07:19AM 41.9458 -87.0367 87° East 392 451 22,500 1,980 Climbing Chicago Center
07:20AM 41.9478 -86.8861 89° East 405 466 24,400 1,980 Climbing Chicago Center
07:21AM 41.9494 -86.7297 89° East 419 482 26,600 1,860 Climbing Chicago Center
07:22AM 41.9519 -86.5764 89° East 424 488 28,200 1,500 Climbing Chicago Center
07:23AM 41.9542 -86.4125 89° East 436 502 29,700 1,320 Climbing Chicago Center
07:24AM 41.9533 -86.2431 90° East 451 519 31,000 1,380 Climbing Chicago Center
07:25AM 41.9278 -86.0731 101° East 464 534 32,500 1,500 Climbing Chicago Center
07:26AM 41.8950 -85.9044 105° East 466 536 34,100 1,260 Climbing Chicago Center
07:27AM 41.8614 -85.7356 105° East 467 537 35,100 1,020 Climbing Chicago Center
07:28AM 41.8269 -85.5603 105° East 477 549 36,200 840 Climbing Chicago Center
07:29AM 41.7900 -85.3819 105° East 486 559 36,900 360 Climbing Chicago Center
07:30AM 41.7536 -85.2017 105° East 489 563 37,000  Climbing Chicago Center
07:31AM 41.7228 -85.0461 105° East 473 544 37,000  Level Cleveland Center
07:32AM 41.6858 -84.8711 106° East 478 550 37,000  Level Cleveland Center
07:33AM 41.6336 -84.7036 113° Southeast 484 557 37,000  Level Cleveland Center
07:33AM 41.6219 -84.6794 123° Southeast 494 568 37,000  Level Chicago Center
07:34AM 41.5642 -84.5467 120° Southeast 484 557 37,000  Level Cleveland Center
07:35AM 41.4942 -84.3925 121° Southeast 489 563 37,000  Level Cleveland Center
07:35AM 41.4831 -84.3681 121° Southeast 488 562 37,000  Level Chicago Center
07:36AM 41.4219 -84.2414 123° Southeast 489 563 37,000  Level Cleveland Center
07:37AM 41.3539 -84.0856 120° Southeast 489 563 37,000  Level Cleveland Center
07:38AM 41.2836 -83.9297 121° Southeast 489 563 37,000  Level Cleveland Center
07:39AM 41.2128 -83.7769 122° Southeast 489 563 37,000  Level Cleveland Center
07:40AM 41.1419 -83.6189 121° Southeast 489 563 37,000  Level Cleveland Center
07:41AM 41.0731 -83.4669 121° Southeast 489 563 37,000  Level Cleveland Center
07:42AM 41.0039 -83.3097 120° Southeast 494 568 37,000 -60 Level Cleveland Center
07:43AM 40.9483 -83.1892 121° Southeast 489 563 36,900  Descending Cleveland Center
07:44AM 40.8003 -82.8786 122° Southeast 493 567 37,000  Climbing Indianapolis Center
07:45AM 40.7275 -82.7247 122° Southeast 493 567 37,000  Level Indianapolis Center
07:46AM 40.6556 -82.5708 122° Southeast 492 566 37,000  Level Indianapolis Center
07:47AM 40.5822 -82.4186 122° Southeast 492 566 37,000  Level Indianapolis Center
07:49AM 40.5094 -82.2653 122° Southeast 492 566 37,000  Level Indianapolis Center
07:50AM 40.4347 -82.1119 123° Southeast 495 570 37,000  Level Indianapolis Center
07:50AM 40.3914 -82.0253 123° Southeast 505 581 37,000  Level Cleveland Center
07:51AM 40.3608 -81.9569 120° Southeast 498 573 37,000  Level Indianapolis Center
07:52AM 40.2853 -81.8019 123° Southeast 500 575 37,000  Level Indianapolis Center
07:53AM 40.2092 -81.6456 122° Southeast 505 581 37,000  Level Indianapolis Center
07:53AM 40.1775 -81.5750 120° Southeast 505 581 37,000  Level Cleveland Center
07:54AM 40.1017 -81.4217 123° Southeast 505 581 37,000  Level Cleveland Center
07:55AM 40.0564 -81.3339 124° Southeast 505 581 37,000 -240 Level Indianapolis Center
07:56AM 39.9786 -81.1769 123° Southeast 510 587 36,700 -420 Descending Indianapolis Center
07:56AM 39.9514 -81.1139 119° Southeast 505 581 36,400 -1,080 Descending Cleveland Center
07:57AM 39.8664 -80.9481 124° Southeast 505 581 35,200 -540 Descending Cleveland Center
07:59AM 39.7503 -80.7192 123° Southeast 489 563 35,000 -120 Descending Indianapolis Center
08:00AM 39.6753 -80.5717 123° Southeast 489 563 35,000  Level Indianapolis Center
08:00AM 39.6467 -80.5103 121° Southeast 490 564 35,000  Level Washington Center
08:01AM 39.5733 -80.3625 123° Southeast 490 564 35,000  Level Washington Center
08:02AM 39.4997 -80.2178 123° Southeast 490 564 35,000 -420 Level Washington Center
08:03AM 39.4200 -80.0675 124° Southeast 490 564 34,200 -1,380 Descending Washington Center
08:04AM 39.3428 -79.8989 121° Southeast 520 598 32,300 -2,040 Descending Washington Center
08:05AM 39.2928 -79.7189 110° East 530 610 30,200 -1,800 Descending Washington Center
08:06AM 39.2761 -79.5383 97° East 517 595 28,700 -1,440 Descending Washington Center
08:07AM 39.2608 -79.3633 96° East 503 579 27,300 -1,440 Descending Washington Center
08:08AM 39.2433 -79.1803 97° East 485 558 25,900 -1,380 Descending Washington Center
08:09AM 39.2292 -79.0239 97° East 465 535 24,600 -1,500 Descending Washington Center
08:10AM 39.2169 -78.8681 96° East 444 511 22,900 -1,800 Descending Washington Center
08:11AM 39.2000 -78.7172 98° East 433 498 21,000 -1,860 Descending Washington Center
08:12AM 39.1850 -78.5772 98° East 412 474 19,200 -1,620 Descending Washington Center
08:13AM 39.1717 -78.4350 97° East 406 467 17,800 -1,500 Descending Washington Center
08:14AM 39.1497 -78.3056 102° East 391 450 16,300 -1,380 Descending Washington Center
08:15AM 39.1169 -78.1786 108° East 369 425 15,100 -1,200 Descending Washington Center
08:16AM 39.0881 -78.0625 108° East 356 410 14,000 -1,140 Descending Washington Center
08:17AM 39.0592 -77.9494 108° East 342 394 12,900 -1,080 Descending Washington Center
08:18AM 39.0300 -77.8361 108° East 331 381 11,900 -1,080 Descending Washington Center
08:19AM 39.0047 -77.7419 109° East 318 366 10,900 -1,020 Descending Washington Center
08:20AM 38.9772 -77.6342 108° East 299 344 9,900 -1,020 Descending Washington Center
08:21AM 38.9500 -77.5667 117° Southeast 285 328 9,200 -1,020 Descending Potomac TRACON
08:22AM 38.9167 -77.4667 113° Southeast 284 327 8,200 -1,080 Descending Potomac TRACON
08:23AM 38.8833 -77.4000 123° Southeast 288 331 7,200 -1,140 Descending Potomac TRACON
08:24AM 38.8500 -77.3000 113° Southeast 281 323 6,100 -780 Descending Potomac TRACON
08:25AM 38.8000 -77.2333 134° Southeast 259 298 5,700 -840 Descending Potomac TRACON
08:26AM 38.7667 -77.1667 123° Southeast 221 254 4,600 -1,320 Descending Potomac TRACON
08:27AM 38.7333 -77.1167 131° Southeast 213 245 3,200 -1,260 Descending Potomac TRACON
08:28AM 38.7500 -77.0500 72° East 177 204 2,100 -1,140 Descending Potomac TRACON